Location: Berkeley
(37.8716°N, 122.2727°W)
Time: 17:20:10
(UTC-07:00)

OTV 5 (USA 277) - Visible Passes

Search period start: 16 October 2019 00:00
Search period end: 26 October 2019 00:00
Orbit: 310 x 324 km, 54.5° (Epoch: 08 October)

Date Brightness Start Highest point End Pass type
(mag) Time Alt. Az. Time Alt. Az. Time Alt. Az.
17 Oct ? 06:28:08 10° NNW 06:30:13 19° NE 06:32:18 10° E visible
18 Oct ? 06:42:14 10° NW 06:44:54 49° NE 06:47:34 10° ESE visible
19 Oct ? 05:25:04 13° NE 05:25:04 13° NE 05:26:23 10° ENE visible
20 Oct ? 05:39:44 29° NE 05:39:44 29° NE 05:42:09 10° ESE visible
21 Oct ? 05:54:32 72° SE 05:54:32 72° SE 05:57:01 10° SE visible
22 Oct ? 06:09:28 21° SSW 06:09:28 21° SSW 06:11:02 10° S visible
25 Oct ? 20:00:01 10° SSW 20:00:05 10° SSW 20:00:05 10° SSW visible
